Time,TemperatureF,DewpointF,PressureIn,WindDirection,WindDirectionDegrees,WindSpeedMPH,WindSpeedGustMPH,Humidity,HourlyPrecipIn,Conditions,Clouds,dailyrainin,SolarRadiationWatts/m^2,SoftwareType,DateUTC
2013-02-26 00:21:00,46.0,20.0,-100.00,West,274,14.0,30.0,35,0.00,,,0.00,0.000000,,2013-02-26 08:21:00,
2013-02-26 00:31:00,46.0,20.0,-100.00,West,274,14.0,30.0,35,0.00,,,0.00,0.000000,,2013-02-26 08:31:00,
2013-02-26 00:41:00,46.0,20.0,-100.00,West,274,14.0,30.0,35,0.00,,,0.00,0.000000,,2013-02-26 08:41:00,
2013-02-26 00:52:00,46.0,20.0,-100.00,West,274,14.0,30.0,35,0.00,,,0.00,0.000000,,2013-02-26 08:52:00,
2013-02-26 01:21:00,47.0,23.0,-100.00,West,280,23.0,29.0,39,0.00,,,0.00,0.000000,,2013-02-26 09:21:00,
2013-02-26 01:31:00,47.0,23.0,-100.00,West,280,23.0,29.0,39,0.00,,,0.00,0.000000,,2013-02-26 09:31:00,
2013-02-26 01:43:00,47.0,23.0,-100.00,West,280,23.0,29.0,39,0.00,,,0.00,0.000000,,2013-02-26 09:43:00,
2013-02-26 01:51:00,47.0,23.0,-100.00,West,280,23.0,29.0,39,0.00,,,0.00,0.000000,,2013-02-26 09:51:00,
2013-02-26 02:21:00,46.0,24.0,-100.00,West,276,32.0,47.0,41,0.00,,,0.00,0.000000,,2013-02-26 10:21:00,
2013-02-26 02:31:00,46.0,24.0,-100.00,West,276,32.0,47.0,41,0.00,,,0.00,0.000000,,2013-02-26 10:31:00,
2013-02-26 02:41:00,46.0,24.0,-100.00,West,276,32.0,47.0,41,0.00,,,0.00,0.000000,,2013-02-26 10:41:00,
2013-02-26 02:51:00,46.0,24.0,-100.00,West,276,32.0,47.0,41,0.00,,,0.00,0.000000,,2013-02-26 10:51:00,
2013-02-26 03:21:00,44.0,20.0,-100.00,WSW,252,18.0,47.0,38,0.00,,,-99.99,0.000000,,2013-02-26 11:21:00,
2013-02-26 03:31:00,44.0,20.0,-100.00,WSW,252,18.0,47.0,38,0.00,,,-99.99,0.000000,,2013-02-26 11:31:00,
2013-02-26 03:41:00,44.0,20.0,-100.00,WSW,252,18.0,47.0,38,0.00,,,-99.99,0.000000,,2013-02-26 11:41:00,
2013-02-26 03:52:00,44.0,20.0,-100.00,WSW,252,18.0,47.0,38,0.00,,,-99.99,0.000000,,2013-02-26 11:52:00,
2013-02-26 04:22:00,42.0,23.0,-100.00,WNW,286,11.0,32.0,46,0.00,,,0.00,0.000000,,2013-02-26 12:22:00,
2013-02-26 04:32:00,42.0,23.0,-100.00,WNW,286,11.0,32.0,46,0.00,,,0.00,0.000000,,2013-02-26 12:32:00,
2013-02-26 04:42:00,42.0,23.0,-100.00,WNW,286,11.0,32.0,46,0.00,,,0.00,0.000000,,2013-02-26 12:42:00,
2013-02-26 04:52:00,42.0,23.0,-100.00,WNW,286,11.0,32.0,46,0.00,,,0.00,0.000000,,2013-02-26 12:52:00,
2013-02-26 05:21:00,41.0,23.0,-100.00,WNW,282,11.0,23.0,48,0.00,,,0.00,0.000000,,2013-02-26 13:21:00,
2013-02-26 05:31:00,41.0,23.0,-100.00,WNW,282,11.0,23.0,48,0.00,,,0.00,0.000000,,2013-02-26 13:31:00,
2013-02-26 05:42:00,41.0,23.0,-100.00,WNW,282,11.0,23.0,48,0.00,,,0.00,0.000000,,2013-02-26 13:42:00,
2013-02-26 05:51:00,41.0,23.0,-100.00,WNW,282,11.0,23.0,48,0.00,,,0.00,0.000000,,2013-02-26 13:51:00,
2013-02-26 06:21:00,39.0,24.0,-100.00,WNW,287,13.0,20.0,55,0.00,,,0.00,0.000000,,2013-02-26 14:21:00,
2013-02-26 06:31:00,39.0,24.0,-100.00,WNW,287,13.0,20.0,55,0.00,,,0.00,0.000000,,2013-02-26 14:31:00,
2013-02-26 06:41:00,39.0,24.0,-100.00,WNW,287,13.0,20.0,55,0.00,,,0.00,0.000000,,2013-02-26 14:41:00,
2013-02-26 06:52:00,39.0,24.0,-100.00,WNW,287,13.0,20.0,55,0.00,,,0.00,0.000000,,2013-02-26 14:52:00,
2013-02-26 07:21:00,41.0,26.0,-100.00,WNW,291,16.0,22.0,54,0.00,,,0.00,12.000000,,2013-02-26 15:21:00,
2013-02-26 07:32:00,41.0,26.0,-100.00,WNW,291,16.0,22.0,54,0.00,,,0.00,12.000000,,2013-02-26 15:32:00,
2013-02-26 07:41:00,41.0,26.0,-100.00,WNW,291,16.0,22.0,54,0.00,,,0.00,12.000000,,2013-02-26 15:41:00,
2013-02-26 07:51:00,41.0,26.0,-100.00,WNW,291,16.0,22.0,54,0.00,,,0.00,12.000000,,2013-02-26 15:51:00,
2013-02-26 08:22:00,48.0,27.0,-100.00,WNW,292,11.0,22.0,43,0.00,,,0.00,171.000000,,2013-02-26 16:22:00,
2013-02-26 08:31:00,48.0,27.0,-100.00,WNW,292,11.0,22.0,43,0.00,,,0.00,171.000000,,2013-02-26 16:31:00,
2013-02-26 08:41:00,48.0,27.0,-100.00,WNW,292,11.0,22.0,43,0.00,,,0.00,171.000000,,2013-02-26 16:41:00,
2013-02-26 08:51:00,48.0,27.0,-100.00,WNW,292,11.0,22.0,43,0.00,,,0.00,171.000000,,2013-02-26 16:51:00,
2013-02-26 09:21:00,56.0,25.0,30.11,North,6,7.0,18.0,30,0.00,,,0.00,427.000000,,2013-02-26 17:21:00,
2013-02-26 09:41:00,56.0,25.0,30.11,North,6,7.0,18.0,30,0.00,,,0.00,427.000000,,2013-02-26 17:41:00,
2013-02-26 09:52:00,56.0,25.0,30.11,North,6,7.0,18.0,30,0.00,,,0.00,427.000000,,2013-02-26 17:52:00,
2013-02-26 11:22:00,58.0,18.0,30.14,ENE,64,15.0,20.0,21,-99.99,,,0.00,785.000000,,2013-02-26 19:22:00,
2013-02-26 11:31:00,58.0,18.0,30.14,ENE,64,15.0,20.0,21,-99.99,,,0.00,785.000000,,2013-02-26 19:31:00,
2013-02-26 11:41:00,58.0,18.0,30.14,ENE,64,15.0,20.0,21,-99.99,,,0.00,785.000000,,2013-02-26 19:41:00,
2013-02-26 11:51:00,58.0,18.0,30.14,ENE,64,15.0,20.0,21,-99.99,,,0.00,785.000000,,2013-02-26 19:51:00,
2013-02-26 12:21:00,60.0,12.0,-100.00,ENE,71,18.0,28.0,15,0.00,,,0.00,891.000000,,2013-02-26 20:21:00,
2013-02-26 12:31:00,60.0,12.0,-100.00,ENE,71,18.0,28.0,15,0.00,,,0.00,891.000000,,2013-02-26 20:31:00,
2013-02-26 12:41:00,60.0,12.0,-100.00,ENE,71,18.0,28.0,15,0.00,,,0.00,891.000000,,2013-02-26 20:41:00,
2013-02-26 12:51:00,60.0,12.0,-100.00,ENE,71,18.0,28.0,15,0.00,,,0.00,891.000000,,2013-02-26 20:51:00,
2013-02-26 13:21:00,61.0,11.0,-100.00,ENE,57,17.0,28.0,14,0.00,,,0.00,905.000000,,2013-02-26 21:21:00,
2013-02-26 13:31:00,61.0,11.0,-100.00,ENE,57,17.0,28.0,14,0.00,,,0.00,905.000000,,2013-02-26 21:31:00,
2013-02-26 13:41:00,61.0,11.0,-100.00,ENE,57,17.0,28.0,14,0.00,,,0.00,905.000000,,2013-02-26 21:41:00,
2013-02-26 13:51:00,61.0,11.0,-100.00,ENE,57,17.0,28.0,14,0.00,,,0.00,905.000000,,2013-02-26 21:51:00,
2013-02-26 14:21:00,63.0,10.0,30.08,ENE,60,16.0,27.0,12,0.00,,,0.00,844.000000,,2013-02-26 22:21:00,
2013-02-26 14:31:00,63.0,10.0,30.08,ENE,60,16.0,27.0,12,0.00,,,0.00,844.000000,,2013-02-26 22:31:00,
2013-02-26 14:41:00,63.0,10.0,30.08,ENE,60,16.0,27.0,12,0.00,,,0.00,844.000000,,2013-02-26 22:41:00,
2013-02-26 14:51:00,63.0,10.0,30.08,ENE,60,16.0,27.0,12,0.00,,,0.00,844.000000,,2013-02-26 22:51:00,
2013-02-26 15:21:00,63.0,10.0,-100.00,East,80,15.0,29.0,12,0.00,,,0.00,714.000000,,2013-02-26 23:21:00,
2013-02-26 15:31:00,63.0,10.0,-100.00,East,80,15.0,29.0,12,0.00,,,0.00,714.000000,,2013-02-26 23:31:00,
2013-02-26 15:41:00,63.0,10.0,-100.00,East,80,15.0,29.0,12,0.00,,,0.00,714.000000,,2013-02-26 23:41:00,
2013-02-26 15:51:00,63.0,10.0,-100.00,East,80,15.0,29.0,12,0.00,,,0.00,714.000000,,2013-02-26 23:51:00,
2013-02-26 16:21:00,61.0,6.0,30.07,ENE,73,12.0,24.0,11,0.00,,,0.00,524.000000,,2013-02-27 00:21:00,
2013-02-26 16:31:00,61.0,6.0,30.07,ENE,73,12.0,24.0,11,0.00,,,0.00,524.000000,,2013-02-27 00:31:00,
2013-02-26 16:41:00,61.0,6.0,30.07,ENE,73,12.0,24.0,11,0.00,,,0.00,524.000000,,2013-02-27 00:41:00,
2013-02-26 16:51:00,61.0,6.0,30.07,ENE,73,12.0,24.0,11,0.00,,,0.00,524.000000,,2013-02-27 00:51:00,
2013-02-26 17:21:00,61.0,8.0,30.07,ENE,70,12.0,20.0,12,0.00,,,0.00,148.000000,,2013-02-27 01:21:00,
2013-02-26 17:31:00,61.0,8.0,30.07,ENE,70,12.0,20.0,12,0.00,,,0.00,148.000000,,2013-02-27 01:31:00,
2013-02-26 17:41:00,61.0,8.0,30.07,ENE,70,12.0,20.0,12,0.00,,,0.00,148.000000,,2013-02-27 01:41:00,
2013-02-26 17:51:00,61.0,8.0,30.07,ENE,70,12.0,20.0,12,0.00,,,0.00,148.000000,,2013-02-27 01:51:00,
2013-02-26 18:22:00,52.0,7.0,-100.00,NE,50,8.0,18.0,16,0.00,,,0.00,33.000000,,2013-02-27 02:22:00,
2013-02-26 18:32:00,52.0,7.0,-100.00,NE,50,8.0,18.0,16,0.00,,,0.00,33.000000,,2013-02-27 02:32:00,
2013-02-26 18:41:00,52.0,7.0,-100.00,NE,50,8.0,18.0,16,0.00,,,0.00,33.000000,,2013-02-27 02:41:00,
2013-02-26 18:52:00,52.0,7.0,-100.00,NE,50,8.0,18.0,16,0.00,,,0.00,33.000000,,2013-02-27 02:52:00,
2013-02-26 19:21:00,51.0,6.0,-100.00,NE,46,10.0,11.0,16,0.00,,,0.00,0.000000,,2013-02-27 03:21:00,
2013-02-26 19:32:00,51.0,6.0,-100.00,NE,46,10.0,11.0,16,0.00,,,0.00,0.000000,,2013-02-27 03:32:00,
2013-02-26 19:41:00,51.0,6.0,-100.00,NE,46,10.0,11.0,16,0.00,,,0.00,0.000000,,2013-02-27 03:41:00,
2013-02-26 19:51:00,51.0,6.0,-100.00,NE,46,10.0,11.0,16,0.00,,,0.00,0.000000,,2013-02-27 03:51:00,
2013-02-26 20:11:00,45.0,16.0,-100.00,North,353,7.0,17.0,31,0.00,,,0.00,0.000000,,2013-02-27 04:11:00,
2013-02-26 20:21:00,45.0,16.0,-100.00,North,353,7.0,17.0,31,0.00,,,0.00,0.000000,,2013-02-27 04:21:00,
2013-02-26 20:31:00,45.0,16.0,-100.00,North,353,7.0,17.0,31,0.00,,,0.00,0.000000,,2013-02-27 04:31:00,
2013-02-26 20:41:00,45.0,16.0,-100.00,North,353,7.0,17.0,31,0.00,,,0.00,0.000000,,2013-02-27 04:41:00,
2013-02-26 20:51:00,45.0,16.0,-100.00,North,353,7.0,17.0,31,0.00,,,0.00,0.000000,,2013-02-27 04:51:00,
2013-02-26 21:22:00,41.0,21.0,-100.00,NNW,346,8.0,11.0,44,0.00,,,0.00,0.000000,,2013-02-27 05:22:00,
2013-02-26 21:32:00,41.0,21.0,-100.00,NNW,346,8.0,11.0,44,0.00,,,0.00,0.000000,,2013-02-27 05:32:00,
2013-02-26 21:41:00,41.0,21.0,-100.00,NNW,346,8.0,11.0,44,0.00,,,0.00,0.000000,,2013-02-27 05:41:00,
2013-02-26 21:52:00,41.0,21.0,-100.00,NNW,346,8.0,11.0,44,0.00,,,0.00,0.000000,,2013-02-27 05:52:00,
2013-02-26 22:21:00,40.0,21.0,-100.00,NNW,334,6.0,10.0,47,0.00,,,0.00,0.000000,,2013-02-27 06:21:00,
2013-02-26 22:32:00,40.0,21.0,-100.00,NNW,334,6.0,10.0,47,0.00,,,0.00,0.000000,,2013-02-27 06:32:00,
2013-02-26 22:41:00,40.0,21.0,-100.00,NNW,334,6.0,10.0,47,0.00,,,0.00,0.000000,,2013-02-27 06:41:00,
2013-02-26 22:51:00,40.0,21.0,-100.00,NNW,334,6.0,10.0,47,0.00,,,0.00,0.000000,,2013-02-27 06:51:00,
2013-02-26 23:21:00,36.0,17.0,-100.00,NNW,330,8.0,10.0,45,0.00,,,0.00,0.000000,,2013-02-27 07:21:00,
2013-02-26 23:31:00,36.0,17.0,-100.00,NNW,330,8.0,10.0,45,0.00,,,0.00,0.000000,,2013-02-27 07:31:00,
2013-02-26 23:41:00,36.0,17.0,-100.00,NNW,330,8.0,10.0,45,0.00,,,0.00,0.000000,,2013-02-27 07:41:00,
2013-02-26 23:51:00,36.0,17.0,-100.00,NNW,330,8.0,10.0,45,0.00,,,0.00,0.000000,,2013-02-27 07:51:00,